Showing default

ORBCOMM FM 117, 41188

Orbit data source: Space-Track

ORBCOMM FM 117, 41188 is a payload satellite owned by Orbcomm (US) in LEO that was launched on Tue, 22 Dec 2015 UTC via an FALCON 9 launch vehicle from the Air Force Eastern Test Range (AFETR). Payload-class satellites include a variety of spacecraft equipped with specific instruments for various scientific and technological missions. These include communications satellites like Starlink; space stations such as the ISS; scientific satellites like the Hubble; Earth observation satellites from companies like Planet Labs, Umbra, and HawkEye 360; GPS; miniature CubeSats for education and research; and military/defense satellites.

Loading next visibility...
Identifier
41188, 2015-081K
Orbit
LEO
Country
Flag of USUS / ORB
Related business
Manufacturer
SNC Louisville
Mission
Operational Commercial Communications
Bus & Motor
SN-100A, Unknown motor
Mass
172 kg wet, 158 kg dry
Launch date (UTC)
2015-12-22 (10 years ago)
Launch vehicle
FALCON 9
Launch site
Air Force Eastern Test Range (AFETR)
Object type
Payload
Rocket body
Debris
Shape & HBR
Box + 1 Pan + 1 Ant, 5.3 m
Radar Cross Section
2.222 m², Medium (>0.1 m² and < 1m²)

Expand to show TLE details & history
Last TLE update: 9 hours ago

TLE from 9 hours ago
0 ORBCOMM FM 117
1 41188U 15081K   26110.38005017  .00000199  00000-0  78417-4 0  9991
2 41188  47.0003  94.1395 0004045 295.6822  64.3646 14.58803944551686
Epoch: 2026-04-20T09:07Z
TLE epoch observation values (Epoch: 2026-04-20T09:07:16.334Z)
Latitude
-0.00001°
Longitude
108.85041°
Altitude
696.017 km
Speed
7.51 km/s
True Right ascension
06h 16m 33s
True Declination
0° 00' 00"
Sunlit
Object was in daylight at epoch
Visualization orbit readout
Latitude
Unknown
Longitude
Unknown
Altitude
Unknown
Speed
Unknown
Apparent Right ascension
Unknown
Apparent Declination
Unknown
Sunlit
N/A
Visualization observer readout
Local Sidereal Time
01:23:35
Azimuth
Unknown
Elevation
Unknown
Doppler factor
Unknown
Orbital elements
Apogee altitude
701.136 km
Perigee altitude
695.411 km
Semi-major axis
7,076.411 km
Eccentricity
0.0004
Inclination
47.0003°
RAAN
94.1395°
Arg. of periapsis
295.6822°
True anomaly
64.4064°
Mean anomaly
64.3646°
Eccentric anomaly
64.3855°
Mean motion
3.64606 °/min
Orbital period
98.74 mins
BSTAR
0.000078417
Loading maneuver chart data...
Computing Atmospheric mass density...
Loading historical data...
Loading historical data...
Loading historical data...
Loading historical data...
Loading historical data...
Loading historical data...
Loading historical data...

Documentation

Showing up to 5 results
|